FW3743 Weather Reports


Display with metric or nautical units.
time (UTC)temp
F
wind
direction
speed
MPH
gust
MPH
rain 1hr
in
rain 24hr
in
rain mn
in
humidity
%
barometer
mb
20260905154255 73 0.0 0.0 0.00 0.00 0.00 75 1013.6
20260905153234 75 21 0.0 4.0 0.00 0.00 0.00 74 1014.0
20260905152235 74 0.0 0.0 0.00 0.00 0.00 75 1013.8
20260905151234 74 303 0.0 1.0 0.00 0.00 0.00 76 1014.2
20260905150235 73 358 0.0 2.0 0.00 0.00 0.00 77 1013.8
20260905145234 72 1 0.0 4.0 0.00 0.00 0.00 79 1014.3
20260905144316 74 63 0.0 2.0 0.00 0.00 0.00 79 1013.8
20260905143234 71 2 0.0 4.0 0.00 0.00 0.00 83 1014.2
20260905142236 72 0.0 0.0 0.00 0.00 0.00 84 1013.8
20260905141234 71 0.0 0.0 0.00 0.00 0.00 85 1014.2
20260905140235 72 0.0 0.0 0.00 0.00 0.00 84 1013.9
20260905135234 70 0.0 0.0 0.00 0.00 0.00 87 1014.1
20260905134316 70 0.0 0.0 0.00 0.00 0.00 88 1014.2
20260905133234 70 0.0 0.0 0.00 0.00 0.00 86 1014.2
20260905132235 68 0.0 0.0 0.00 0.00 0.00 90 1014.0
20260905131234 67 0.0 0.0 0.00 0.00 0.00 93 1014.2
20260905130236 67 0.0 0.0 0.00 0.00 0.00 90 1014.1
20260905125234 68 0.0 0.0 0.00 0.00 0.00 89 1014.2
20260905124236 67 0.0 0.0 0.00 0.00 0.00 91 1014.0
20260905123234 65 0.0 0.0 0.00 0.00 0.00 94 1014.2
20260905122236 64 0.0 0.0 0.00 0.00 0.00 96 1013.9
20260905121234 63 0.0 0.0 0.00 0.00 0.00 97 1014.0
20260905120236 62 0.0 0.0 0.00 0.00 0.00 99 1013.9
20260905115235 61 0.0 0.0 0.00 0.00 0.00 99 1014.2
20260905114236 61 0.0 0.0 0.00 0.00 0.00 99 1013.7
20260905113235 61 0.0 0.0 0.00 0.00 0.00 99 1014.0
20260905112236 62 0.0 0.0 0.00 0.00 0.00 99 1013.7
20260905111234 58 0.0 0.0 0.00 0.00 0.00 99 1013.8
20260905110236 57 0.0 0.0 0.00 0.00 0.00 99 1013.5
20260905105234 57 0.0 0.0 0.00 0.00 0.00 99 1013.4
20260905104236 57 0.0 0.0 0.00 0.00 0.00 99 1013.0
20260905103234 57 0.0 0.0 0.00 0.00 0.00 99 1013.2
20260905102236 57 0.0 0.0 0.00 0.00 0.00 99 1013.0
20260905101234 57 0.0 0.0 0.00 0.00 0.00 99 1013.5
20260905100236 57 0.0 0.0 0.00 0.00 0.00 99 1012.8
20260905095254 58 0.0 0.0 0.00 0.00 0.00 99 1013.1
20260905094236 58 0.0 0.0 0.00 0.00 0.00 99 1012.6
20260905093234 57 0.0 0.0 0.00 0.00 0.00 99 1013.1
20260905092236 57 0.0 0.0 0.00 0.00 0.00 99 1012.8
20260905091314 58 0.0 0.0 0.00 0.00 0.00 99 1013.2
20260905090256 59 0.0 0.0 0.00 0.00 0.00 99 1012.8
20260905085234 59 0.0 0.0 0.00 0.00 0.00 99 1013.2
20260905084256 59 0.0 0.0 0.00 0.00 0.00 99 1013.1
20260905083234 59 0.0 0.0 0.00 0.00 0.00 99 1013.4
20260905082236 59 0.0 0.0 0.00 0.00 0.00 99 1013.1
20260905081254 59 0.0 0.0 0.00 0.00 0.00 99 1013.3
20260905080236 59 0.0 0.0 0.00 0.00 0.00 99 1013.0
20260905075234 60 0.0 0.0 0.00 0.00 0.00 99 1013.1
20260905074236 60 0.0 0.0 0.00 0.00 0.00 99 1012.9
20260905073234 61 0.0 0.0 0.00 0.00 0.00 99 1012.9
20260905072236 61 0.0 0.0 0.00 0.00 0.00 98 1012.9
20260905071234 62 0.0 0.0 0.00 0.00 0.00 98 1013.2
20260905070236 62 0.0 0.0 0.00 0.00 0.00 98 1013.0
20260905065234 62 0.0 0.0 0.00 0.00 0.00 99 1013.4
20260905064236 62 0.0 0.0 0.00 0.00 0.00 99 1013.0
20260905063314 63 0.0 0.0 0.00 0.00 0.00 98 1013.1
20260905062256 64 0.0 0.0 0.00 0.00 0.00 97 1012.9
20260905061234 64 0.0 0.0 0.00 0.00 0.00 96 1013.3
20260905060236 65 0.0 0.0 0.00 0.00 0.00 95 1013.1
20260905055234 65 0.0 0.0 0.00 0.00 0.00 95 1013.3
20260905054236 66 0.0 0.0 0.00 0.00 0.00 96 1013.1
20260905053234 66 0.0 0.0 0.00 0.00 0.00 96 1013.5
20260905052257 66 0.0 0.0 0.00 0.00 0.00 95 1013.3
20260905051234 66 0.0 0.0 0.00 0.00 0.00 95 1013.7
20260905050236 66 0.0 0.0 0.00 0.00 0.00 95 1013.4
20260905045234 66 0.0 0.0 0.00 0.00 0.00 95 1013.7
20260905044236 66 0.0 0.0 0.00 0.00 0.00 95 1013.3
20260905043234 66 0.0 0.0 0.00 0.00 0.00 97 1013.4
20260905042236 66 0.0 0.0 0.00 0.00 0.00 97 1013.3
20260905041254 66 0.0 0.0 0.00 0.00 0.00 97 1013.3
20260905040236 66 0.0 0.0 0.00 0.00 0.00 97 1013.4
20260905035234 66 0.0 0.0 0.00 0.00 0.00 97 1013.4
20260905034236 66 0.0 0.0 0.00 0.00 0.00 96 1012.5
20260905033233 66 0.0 0.0 0.00 0.00 0.00 96 1013.5
20260905032236 66 0.0 0.0 0.00 0.00 0.00 96 1012.3
20260905031233 66 0.0 0.0 0.00 0.00 0.00 96 1013.2
20260905030256 66 0.0 0.0 0.00 0.00 0.00 95 1012.2
20260905025233 66 0.0 0.0 0.00 0.00 0.00 94 1013.1
20260905024257 66 0.0 0.0 0.00 0.00 0.00 94 1012.4
20260905023233 65 0.0 0.0 0.00 0.00 0.00 94 1013.3
20260905022236 65 0.0 0.0 0.00 0.00 0.00 93 1012.4
20260905021234 65 0.0 0.0 0.00 0.00 0.00 92 1013.9
20260905020237 66 0.0 0.0 0.00 0.00 0.00 92 1013.4
20260905015254 66 0.0 0.0 0.00 0.00 0.00 91 1013.4
20260905014236 67 0.0 0.0 0.00 0.00 0.00 91 1013.4
20260905013234 67 0.0 0.0 0.00 0.00 0.00 91 1013.6
20260905012236 67 0.0 0.0 0.00 0.00 0.00 91 1013.5
20260905011234 66 0.0 0.0 0.00 0.00 0.00 91 1013.8
20260905010236 66 0.0 0.0 0.00 0.00 0.00 91 1013.5
20260905005253 66 0.0 0.0 0.00 0.00 0.00 90 1013.9
20260905004236 67 0.0 0.0 0.00 0.00 0.00 88 1013.4
20260905003234 68 0.0 0.0 0.00 0.00 0.00 87 1013.4
20260905002236 69 0.0 0.0 0.00 0.00 0.00 86 1013.3
20260905001253 69 0.0 0.0 0.00 0.00 0.00 85 1013.5
20260905000237 69 0.0 0.0 0.00 0.00 0.00 83 1013.1
20260904235234 70 0.0 0.0 0.00 0.00 0.00 83 1013.3
20260904234357 70 0.0 0.0 0.00 0.00 0.00 81 1013.1
20260904233233 70 0.0 0.0 0.00 0.00 0.00 80 1013.3
20260904232237 71 0.0 0.0 0.00 0.00 0.00 78 1013.0
20260904231233 71 0.0 0.0 0.00 0.00 0.00 76 1013.1
20260904230237 72 0.0 0.0 0.00 0.00 0.00 75 1012.8
20260904225234 73 0.0 0.0 0.00 0.00 0.00 72 1013.0
20260904224237 75 0.0 0.0 0.00 0.00 0.00 70 1012.9
20260904223233 75 0.0 0.0 0.00 0.00 0.00 69 1013.0
20260904222237 76 6 1.0 5.0 0.00 0.00 0.00 67 1012.7
20260904221233 76 28 0.0 1.0 0.00 0.00 0.00 67 1013.0
20260904220257 75 332 0.0 2.0 0.00 0.00 0.00 67 1012.7
20260904215233 76 339 0.0 1.0 0.00 0.00 0.00 67 1013.2
20260904214237 76 316 1.0 7.0 0.00 0.00 0.00 65 1012.8
20260904213233 76 342 0.0 4.0 0.00 0.00 0.00 66 1012.9
20260904212257 77 359 1.0 7.0 0.00 0.00 0.00 64 1013.0
20260904211254 77 336 1.0 8.0 0.00 0.00 0.00 64 1013.2
20260904210237 76 337 1.0 7.0 0.00 0.00 0.00 63 1013.0
20260904205233 77 337 1.0 7.0 0.00 0.00 0.00 65 1013.4
20260904204237 77 325 0.0 5.0 0.00 0.00 0.00 65 1013.2
20260904203233 77 322 2.0 10.0 0.00 0.00 0.00 66 1013.4
20260904202237 77 4 1.0 5.0 0.00 0.00 0.00 65 1013.4
20260904201233 77 279 3.0 8.0 0.00 0.00 0.00 67 1013.8
20260904200237 76 308 2.0 15.0 0.00 0.00 0.00 66 1013.3
20260904195233 77 337 3.0 14.0 0.00 0.00 0.00 66 1013.7
20260904194237 78 354 2.0 14.0 0.00 0.00 0.00 65 1013.5
20260904193239 76 325 6.0 11.0 0.00 0.00 0.00 66 1013.8
20260904192317 77 326 1.0 10.0 0.00 0.00 0.00 66 1013.6
20260904191233 78 5 1.0 8.0 0.00 0.00 0.00 65 1013.8
20260904190237 78 7 2.0 12.0 0.00 0.00 0.00 65 1013.7
20260904185233 78 290 2.0 8.0 0.00 0.00 0.00 65 1013.9
20260904184257 78 325 3.0 14.0 0.00 0.00 0.00 64 1013.8
20260904183234 76 317 1.0 5.0 0.00 0.00 0.00 64 1014.0
20260904182237 78 278 4.0 11.0 0.00 0.00 0.00 64 1013.9
20260904181233 75 322 2.0 8.0 0.00 0.00 0.00 68 1014.0
20260904180237 77 315 2.0 10.0 0.00 0.00 0.00 67 1014.0
20260904175233 78 325 3.0 10.0 0.00 0.00 0.00 65 1014.3
20260904174237 78 316 3.0 11.0 0.00 0.00 0.00 66 1014.0
20260904173233 79 279 3.0 12.0 0.00 0.00 0.00 65 1014.2
20260904172238 78 2 0.0 7.0 0.00 0.00 0.00 66 1014.1
20260904171233 78 331 2.0 18.0 0.00 0.00 0.00 64 1014.3
20260904170257 78 272 5.0 12.0 0.00 0.00 0.00 65 1014.2
20260904165253 77 142 1.0 7.0 0.00 0.00 0.00 67 1014.5
20260904164318 78 358 0.0 4.0 0.00 0.00 0.00 66 1014.2
20260904163233 78 282 3.0 8.0 0.00 0.00 0.00 66 1014.4
20260904162237 77 318 3.0 7.0 0.00 0.00 0.00 66 1014.4
20260904161233 77 341 3.0 10.0 0.00 0.00 0.00 67 1014.4
20260904160237 77 317 3.0 10.0 0.00 0.00 0.00 65 1014.0
20260904155233 77 320 2.0 11.0 0.00 0.00 0.00 66 1014.7